| time (UTC) | temp F | wind direction | speed MPH | gust MPH | rain 1hr in | rain 24hr in | rain mn in | humidity % | barometer mb |
| 20260510025345 | 80 | 98 | 2.0 | 9.0 | 0.00 | 0.00 | 0.00 | 55 | 1008.7 |
| 20260510024838 | 80 | 155 | 2.0 | 7.0 | 0.00 | 0.00 | 0.00 | 55 | 1008.6 |
| 20260510024331 | 80 | 105 | 1.0 | 5.0 | 0.00 | 0.00 | 0.00 | 55 | 1008.6 |
| 20260510023816 | 81 | 113 | 2.0 | 4.0 | 0.00 | 0.00 | 0.00 | 55 | 1008.7 |
| 20260510023311 | 81 | 124 | 2.0 | 4.0 | 0.00 | 0.00 | 0.00 | 54 | 1008.6 |
| 20260510022806 | 81 | 137 | 1.0 | 4.0 | 0.00 | 0.00 | 0.00 | 54 | 1008.6 |
| 20260510022252 | 81 | 118 | 1.0 | 5.0 | 0.00 | 0.00 | 0.00 | 54 | 1008.4 |
| 20260510021747 | 82 | 114 | 1.0 | 5.0 | 0.00 | 0.00 | 0.00 | 54 | 1008.4 |
| 20260510021245 | 82 | 103 | 1.0 | 4.0 | 0.00 | 0.00 | 0.00 | 54 | 1008.4 |
| 20260510020741 | 82 | 100 | 2.0 | 7.0 | 0.00 | 0.00 | 0.00 | 53 | 1008.2 |
| 20260510020232 | 82 | 87 | 2.0 | 7.0 | 0.00 | 0.00 | 0.00 | 53 | 1008.2 |
| 20260510015728 | 82 | 137 | 1.0 | 7.0 | 0.00 | 0.00 | 0.00 | 53 | 1008.1 |
| 20260510015720 | 83 | 103 | 2.0 | 7.0 | 0.00 | 0.00 | 0.00 | 53 | 1008.1 |
| 20260510014703 | 83 | 120 | 2.0 | 7.0 | 0.00 | 0.00 | 0.00 | 52 | 1007.9 |
| 20260510014201 | 83 | 101 | 3.0 | 6.0 | 0.00 | 0.00 | 0.00 | 52 | 1007.9 |
| 20260510013651 | 83 | 128 | 3.0 | 7.0 | 0.00 | 0.00 | 0.00 | 51 | 1007.9 |
| 20260510013141 | 84 | 100 | 2.0 | 8.0 | 0.00 | 0.00 | 0.00 | 51 | 1007.8 |
| 20260510012636 | 84 | 97 | 2.0 | 8.0 | 0.00 | 0.00 | 0.00 | 51 | 1007.8 |
| 20260510012627 | 84 | 97 | 2.0 | 8.0 | 0.00 | 0.00 | 0.00 | 51 | 1007.7 |
| 20260510012114 | 85 | 102 | 3.0 | 8.0 | 0.00 | 0.00 | 0.00 | 50 | 1007.7 |
| 20260510011105 | 85 | 118 | 3.0 | 8.0 | 0.00 | 0.00 | 0.00 | 49 | 1007.6 |
| 20260510010603 | 85 | 91 | 2.0 | 8.0 | 0.00 | 0.00 | 0.00 | 46 | 1007.6 |
| 20260510005603 | 86 | 118 | 3.0 | 6.0 | 0.00 | 0.00 | 0.00 | 44 | 1007.4 |
| 20260510005053 | 86 | 139 | 2.0 | 5.0 | 0.00 | 0.00 | 0.00 | 44 | 1007.4 |
| 20260510004543 | 86 | 143 | 1.0 | 5.0 | 0.00 | 0.00 | 0.00 | 44 | 1007.3 |
| 20260510004033 | 86 | 139 | 1.0 | 5.0 | 0.00 | 0.00 | 0.00 | 43 | 1007.3 |
| 20260510003523 | 87 | 135 | 1.0 | 5.0 | 0.00 | 0.00 | 0.00 | 43 | 1007.4 |
| 20260510003013 | 87 | 122 | 1.0 | 4.0 | 0.00 | 0.00 | 0.00 | 43 | 1007.3 |
| 20260510002503 | 87 | 83 | 1.0 | 3.0 | 0.00 | 0.00 | 0.00 | 43 | 1007.3 |
| 20260510001952 | 87 | 124 | 1.0 | 3.0 | 0.00 | 0.00 | 0.00 | 43 | 1007.4 |
| 20260510001443 | 88 | 124 | 1.0 | 5.0 | 0.00 | 0.00 | 0.00 | 42 | 1007.3 |
| 20260510000933 | 88 | 146 | 2.0 | 5.0 | 0.00 | 0.00 | 0.00 | 43 | 1007.4 |
| 20260510000421 | 88 | 153 | 2.0 | 5.0 | 0.00 | 0.00 | 0.00 | 41 | 1007.4 |
| 20260509235911 | 88 | 105 | 2.0 | 5.0 | 0.00 | 0.00 | 0.00 | 42 | 1007.4 |
| 20260509235402 | 88 | 89 | 2.0 | 6.0 | 0.00 | 0.00 | 0.00 | 43 | 1007.4 |
| 20260509234851 | 88 | 82 | 2.0 | 6.0 | 0.00 | 0.00 | 0.00 | 42 | 1007.4 |
| 20260509234341 | 88 | 86 | 3.0 | 8.0 | 0.00 | 0.00 | 0.00 | 42 | 1007.4 |
| 20260509234322 | 88 | 78 | 1.0 | 6.0 | 0.00 | 0.00 | 0.00 | 42 | 1007.4 |
| 20260509233927 | 88 | 53 | 3.0 | 8.0 | 0.00 | 0.00 | 0.00 | 42 | 1007.4 |
| 20260509232811 | 88 | 109 | 2.0 | 6.0 | 0.00 | 0.00 | 0.00 | 41 | 1007.4 |
| 20260509232301 | 88 | 132 | 3.0 | 8.0 | 0.00 | 0.00 | 0.00 | 42 | 1007.4 |
| 20260509231743 | 88 | 96 | 3.0 | 6.0 | 0.00 | 0.00 | 0.00 | 42 | 1007.4 |
| 20260509231234 | 88 | 105 | 3.0 | 8.0 | 0.00 | 0.00 | 0.00 | 41 | 1007.4 |
| 20260509230723 | 88 | 77 | 3.0 | 8.0 | 0.00 | 0.00 | 0.00 | 41 | 1007.4 |
| 20260509230213 | 88 | 88 | 3.0 | 10.0 | 0.00 | 0.00 | 0.00 | 42 | 1007.4 |
| 20260509225702 | 88 | 79 | 4.0 | 10.0 | 0.00 | 0.00 | 0.00 | 42 | 1007.4 |
| 20260509225151 | 89 | 93 | 3.0 | 10.0 | 0.00 | 0.00 | 0.00 | 41 | 1007.4 |
| 20260509224641 | 89 | 130 | 3.0 | 7.0 | 0.00 | 0.00 | 0.00 | 41 | 1007.3 |
| 20260509224631 | 89 | 66 | 3.0 | 9.0 | 0.00 | 0.00 | 0.00 | 40 | 1007.3 |
| 20260509223621 | 89 | 89 | 3.0 | 8.0 | 0.00 | 0.00 | 0.00 | 40 | 1007.3 |
| 20260509223612 | 89 | 78 | 2.0 | 8.0 | 0.00 | 0.00 | 0.00 | 39 | 1007.4 |
| 20260509222601 | 89 | 80 | 2.0 | 7.0 | 0.00 | 0.00 | 0.00 | 40 | 1007.4 |
| 20260509222052 | 89 | 56 | 2.0 | 6.0 | 0.00 | 0.00 | 0.00 | 41 | 1007.3 |
| 20260509221541 | 89 | 152 | 3.0 | 8.0 | 0.00 | 0.00 | 0.00 | 41 | 1007.3 |
| 20260509221029 | 90 | 87 | 3.0 | 8.0 | 0.00 | 0.00 | 0.00 | 42 | 1007.4 |
| 20260509220519 | 89 | 102 | 2.0 | 10.0 | 0.00 | 0.00 | 0.00 | 42 | 1007.4 |
| 20260509220510 | 90 | 43 | 1.0 | 6.0 | 0.00 | 0.00 | 0.00 | 43 | 1007.4 |
| 20260509215459 | 89 | 170 | 0.0 | 1.0 | 0.00 | 0.00 | 0.00 | 40 | 1007.5 |
| 20260509214948 | 90 | 170 | 1.0 | 5.0 | 0.00 | 0.00 | 0.00 | 40 | 1007.5 |
| 20260509214439 | 90 | 172 | 2.0 | 4.0 | 0.00 | 0.00 | 0.00 | 41 | 1007.5 |
| 20260509213929 | 90 | 139 | 3.0 | 8.0 | 0.00 | 0.00 | 0.00 | 41 | 1007.6 |
| 20260509213429 | 90 | 147 | 3.0 | 9.0 | 0.00 | 0.00 | 0.00 | 40 | 1007.7 |
| 20260509212919 | 90 | 182 | 3.0 | 9.0 | 0.00 | 0.00 | 0.00 | 41 | 1007.7 |
| 20260509212410 | 91 | 101 | 3.0 | 6.0 | 0.00 | 0.00 | 0.00 | 39 | 1007.7 |
| 20260509211859 | 90 | 106 | 2.0 | 7.0 | 0.00 | 0.00 | 0.00 | 38 | 1007.8 |
| 20260509211354 | 91 | 76 | 2.0 | 6.0 | 0.00 | 0.00 | 0.00 | 40 | 1007.9 |
| 20260509211349 | 90 | 136 | 1.0 | 7.0 | 0.00 | 0.00 | 0.00 | 40 | 1007.8 |
| 20260509210840 | 91 | 66 | 2.0 | 6.0 | 0.00 | 0.00 | 0.00 | 39 | 1007.9 |
| 20260509205829 | 90 | 349 | 2.0 | 4.0 | 0.00 | 0.00 | 0.00 | 38 | 1008.0 |
| 20260509205319 | 91 | 9 | 2.0 | 4.0 | 0.00 | 0.00 | 0.00 | 41 | 1008.1 |
| 20260509204801 | 91 | 8 | 2.0 | 7.0 | 0.00 | 0.00 | 0.00 | 36 | 1008.3 |
| 20260509204251 | 90 | 332 | 2.0 | 7.0 | 0.00 | 0.00 | 0.00 | 36 | 1008.3 |
| 20260509203733 | 90 | 352 | 1.0 | 4.0 | 0.00 | 0.00 | 0.00 | 41 | 1008.4 |
| 20260509203223 | 90 | 295 | 2.0 | 4.0 | 0.00 | 0.00 | 0.00 | 37 | 1008.5 |
| 20260509202711 | 90 | 257 | 2.0 | 7.0 | 0.00 | 0.00 | 0.00 | 39 | 1008.6 |
| 20260509202201 | 90 | 262 | 3.0 | 7.0 | 0.00 | 0.00 | 0.00 | 41 | 1008.7 |
| 20260509201650 | 91 | 11 | 4.0 | 9.0 | 0.00 | 0.00 | 0.00 | 39 | 1008.7 |
| 20260509201632 | 91 | 358 | 5.0 | 11.0 | 0.00 | 0.00 | 0.00 | 38 | 1008.8 |
| 20260509201236 | 91 | 13 | 5.0 | 9.0 | 0.00 | 0.00 | 0.00 | 41 | 1008.8 |
| 20260509200121 | 91 | 27 | 4.0 | 11.0 | 0.00 | 0.00 | 0.00 | 39 | 1008.8 |
| 20260509195611 | 91 | 343 | 2.0 | 7.0 | 0.00 | 0.00 | 0.00 | 43 | 1008.8 |
| 20260509195101 | 90 | 28 | 2.0 | 6.0 | 0.00 | 0.00 | 0.00 | 42 | 1008.9 |
| 20260509194552 | 91 | 22 | 2.0 | 7.0 | 0.00 | 0.00 | 0.00 | 40 | 1008.9 |
| 20260509194043 | 90 | 39 | 2.0 | 7.0 | 0.00 | 0.00 | 0.00 | 43 | 1009.0 |
| 20260509193533 | 89 | 60 | 4.0 | 9.0 | 0.00 | 0.00 | 0.00 | 41 | 1009.1 |
| 20260509193524 | 90 | 24 | 4.0 | 9.0 | 0.00 | 0.00 | 0.00 | 41 | 1009.1 |
| 20260509192513 | 90 | 8 | 4.0 | 7.0 | 0.00 | 0.00 | 0.00 | 43 | 1009.1 |
| 20260509192007 | 89 | 37 | 3.0 | 10.0 | 0.00 | 0.00 | 0.00 | 43 | 1009.1 |
| 20260509191458 | 88 | 85 | 3.0 | 10.0 | 0.00 | 0.00 | 0.00 | 46 | 1009.1 |
| 20260509190949 | 88 | 331 | 3.0 | 11.0 | 0.00 | 0.00 | 0.00 | 46 | 1009.2 |
| 20260509190439 | 89 | 285 | 3.0 | 11.0 | 0.00 | 0.00 | 0.00 | 47 | 1009.2 |
| 20260509185929 | 89 | 318 | 4.0 | 11.0 | 0.00 | 0.00 | 0.00 | 47 | 1009.3 |
| 20260509185419 | 88 | 45 | 3.0 | 11.0 | 0.00 | 0.00 | 0.00 | 44 | 1009.3 |
| 20260509185410 | 89 | 8 | 2.0 | 7.0 | 0.00 | 0.00 | 0.00 | 47 | 1009.3 |
| 20260509184403 | 89 | 343 | 4.0 | 7.0 | 0.00 | 0.00 | 0.00 | 46 | 1009.4 |
| 20260509183856 | 89 | 282 | 4.0 | 8.0 | 0.00 | 0.00 | 0.00 | 46 | 1009.4 |
| 20260509183851 | 89 | 23 | 3.0 | 9.0 | 0.00 | 0.00 | 0.00 | 46 | 1009.4 |
| 20260509183344 | 88 | 20 | 3.0 | 10.0 | 0.00 | 0.00 | 0.00 | 48 | 1009.4 |
| 20260509182333 | 88 | 16 | 5.0 | 12.0 | 0.00 | 0.00 | 0.00 | 46 | 1009.6 |
| 20260509182325 | 88 | 334 | 5.0 | 12.0 | 0.00 | 0.00 | 0.00 | 49 | 1009.6 |
| 20260509181321 | 87 | 14 | 3.0 | 10.0 | 0.00 | 0.00 | 0.00 | 48 | 1009.7 |
| 20260509181313 | 87 | 4 | 4.0 | 9.0 | 0.00 | 0.00 | 0.00 | 45 | 1009.8 |
| 20260509180309 | 87 | 279 | 5.0 | 9.0 | 0.00 | 0.00 | 0.00 | 48 | 1009.8 |
| 20260509175801 | 87 | 332 | 5.0 | 9.0 | 0.00 | 0.00 | 0.00 | 48 | 1009.7 |
| 20260509175257 | 87 | 39 | 4.0 | 11.0 | 0.00 | 0.00 | 0.00 | 46 | 1009.8 |
| 20260509174757 | 87 | 24 | 4.0 | 11.0 | 0.00 | 0.00 | 0.00 | 45 | 1009.8 |
| 20260509174254 | 87 | 26 | 4.0 | 10.0 | 0.00 | 0.00 | 0.00 | 47 | 1009.9 |
| 20260509174249 | 87 | 344 | 4.0 | 10.0 | 0.00 | 0.00 | 0.00 | 50 | 1009.9 |
| 20260509173247 | 86 | 25 | 5.0 | 11.0 | 0.00 | 0.00 | 0.00 | 47 | 1009.9 |
| 20260509172738 | 86 | 358 | 5.0 | 11.0 | 0.00 | 0.00 | 0.00 | 49 | 1010.0 |
| 20260509172237 | 87 | 43 | 4.0 | 10.0 | 0.00 | 0.00 | 0.00 | 47 | 1010.1 |
| 20260509171731 | 87 | 77 | 3.0 | 10.0 | 0.00 | 0.00 | 0.00 | 50 | 1010.1 |
| 20260509171229 | 86 | 16 | 2.0 | 9.0 | 0.00 | 0.00 | 0.00 | 50 | 1010.2 |
| 20260509170727 | 87 | 23 | 2.0 | 10.0 | 0.00 | 0.00 | 0.00 | 51 | 1010.2 |
| 20260509170213 | 85 | 359 | 3.0 | 11.0 | 0.00 | 0.00 | 0.00 | 48 | 1010.3 |
| 20260509165658 | 85 | 23 | 4.0 | 11.0 | 0.00 | 0.00 | 0.00 | 51 | 1010.3 |
| 20260509165156 | 85 | 0 | 4.0 | 9.0 | 0.00 | 0.00 | 0.00 | 52 | 1010.3 |
| 20260509165150 | 84 | 318 | 4.0 | 11.0 | 0.00 | 0.00 | 0.00 | 54 | 1010.3 |
| 20260509164148 | 84 | 345 | 4.0 | 10.0 | 0.00 | 0.00 | 0.00 | 54 | 1010.3 |
| 20260509164144 | 84 | 313 | 4.0 | 11.0 | 0.00 | 0.00 | 0.00 | 51 | 1010.4 |
| 20260509163126 | 83 | 12 | 3.0 | 10.0 | 0.00 | 0.00 | 0.00 | 54 | 1010.4 |
| 20260509163113 | 83 | 316 | 3.0 | 10.0 | 0.00 | 0.00 | 0.00 | 54 | 1010.4 |
| 20260509162717 | 83 | 22 | 3.0 | 10.0 | 0.00 | 0.00 | 0.00 | 53 | 1010.5 |
| 20260509161603 | 83 | 322 | 4.0 | 14.0 | 0.00 | 0.00 | 0.00 | 57 | 1010.3 |
| 20260509161057 | 82 | 307 | 4.0 | 11.0 | 0.00 | 0.00 | 0.00 | 55 | 1010.3 |
| 20260509160546 | 82 | 324 | 3.0 | 8.0 | 0.00 | 0.00 | 0.00 | 56 | 1010.3 |
| 20260509160532 | 81 | 24 | 3.0 | 8.0 | 0.00 | 0.00 | 0.00 | 58 | 1010.3 |
| 20260509160137 | 82 | 336 | 3.0 | 8.0 | 0.00 | 0.00 | 0.00 | 59 | 1010.3 |
| 20260509155009 | 81 | 330 | 4.0 | 11.0 | 0.00 | 0.00 | 0.00 | 61 | 1010.2 |
| 20260509154502 | 81 | 347 | 4.0 | 11.0 | 0.00 | 0.00 | 0.00 | 61 | 1010.2 |
| 20260509153952 | 81 | 351 | 4.0 | 9.0 | 0.00 | 0.00 | 0.00 | 61 | 1010.2 |
| 20260509153449 | 80 | 359 | 5.0 | 9.0 | 0.00 | 0.00 | 0.00 | 61 | 1010.2 |
| 20260509153429 | 80 | 326 | 4.0 | 11.0 | 0.00 | 0.00 | 0.00 | 62 | 1010.3 |
| 20260509153032 | 80 | 325 | 4.0 | 11.0 | 0.00 | 0.00 | 0.00 | 61 | 1010.3 |
| 20260509151917 | 80 | 4 | 4.0 | 10.0 | 0.00 | 0.00 | 0.00 | 61 | 1010.2 |
| 20260509151407 | 79 | 303 | 4.0 | 10.0 | 0.00 | 0.00 | 0.00 | 61 | 1010.2 |
| 20260509150857 | 79 | 317 | 3.0 | 10.0 | 0.00 | 0.00 | 0.00 | 61 | 1010.2 |
| 20260509150347 | 78 | 340 | 5.0 | 12.0 | 0.00 | 0.00 | 0.00 | 64 | 1010.3 |
| 20260509145837 | 78 | 1 | 5.0 | 12.0 | 0.00 | 0.00 | 0.00 | 63 | 1010.4 |
| 20260509145327 | 78 | 349 | 5.0 | 11.0 | 0.00 | 0.00 | 0.00 | 62 | 1010.4 |
| 20260509145318 | 78 | 359 | 4.0 | 12.0 | 0.00 | 0.00 | 0.00 | 64 | 1010.4 |
| 20260509144307 | 77 | 316 | 4.0 | 12.0 | 0.00 | 0.00 | 0.00 | 65 | 1010.4 |
| 20260509143756 | 77 | 309 | 4.0 | 10.0 | 0.00 | 0.00 | 0.00 | 66 | 1010.3 |
| 20260509143247 | 76 | 341 | 4.0 | 8.0 | 0.00 | 0.00 | 0.00 | 70 | 1010.4 |
| 20260509142736 | 76 | 312 | 3.0 | 9.0 | 0.00 | 0.00 | 0.00 | 72 | 1010.4 |
| 20260509142227 | 76 | 345 | 2.0 | 9.0 | 0.00 | 0.00 | 0.00 | 73 | 1010.4 |
| 20260509141716 | 75 | 321 | 2.0 | 6.0 | 0.00 | 0.00 | 0.00 | 72 | 1010.4 |
| 20260509141206 | 75 | 301 | 2.0 | 9.0 | 0.00 | 0.00 | 0.00 | 75 | 1010.4 |
| 20260509140655 | 74 | 320 | 2.0 | 9.0 | 0.00 | 0.00 | 0.00 | 74 | 1010.4 |
| 20260509140146 | 74 | 313 | 4.0 | 10.0 | 0.00 | 0.00 | 0.00 | 76 | 1010.3 |
| 20260509135636 | 73 | 359 | 4.0 | 10.0 | 0.00 | 0.00 | 0.00 | 76 | 1010.3 |
| 20260509135126 | 73 | 318 | 3.0 | 9.0 | 0.00 | 0.00 | 0.00 | 78 | 1010.2 |
| 20260509135117 | 72 | 351 | 3.0 | 7.0 | 0.00 | 0.00 | 0.00 | 78 | 1010.3 |
| 20260509134107 | 71 | 10 | 3.0 | 7.0 | 0.00 | 0.00 | 0.00 | 79 | 1010.1 |
| 20260509133556 | 71 | 2 | 3.0 | 8.0 | 0.00 | 0.00 | 0.00 | 80 | 1010.1 |
| 20260509133045 | 70 | 336 | 4.0 | 8.0 | 0.00 | 0.00 | 0.00 | 81 | 1010.2 |
| 20260509133034 | 70 | 357 | 4.0 | 10.0 | 0.00 | 0.00 | 0.00 | 81 | 1010.1 |
| 20260509132025 | 70 | 343 | 4.0 | 8.0 | 0.00 | 0.00 | 0.00 | 82 | 1010.1 |
| 20260509131514 | 70 | 349 | 4.0 | 8.0 | 0.00 | 0.00 | 0.00 | 82 | 1010.1 |
| 20260509131005 | 69 | 326 | 3.0 | 8.0 | 0.00 | 0.00 | 0.00 | 83 | 1010.0 |
| 20260509130454 | 69 | 336 | 3.0 | 8.0 | 0.00 | 0.00 | 0.00 | 83 | 1010.1 |
| 20260509130449 | 69 | 337 | 3.0 | 8.0 | 0.00 | 0.00 | 0.00 | 83 | 1010.0 |
| 20260509125934 | 68 | 332 | 4.0 | 11.0 | 0.00 | 0.00 | 0.00 | 83 | 1010.0 |
| 20260509124925 | 68 | 359 | 4.0 | 11.0 | 0.00 | 0.00 | 0.00 | 83 | 1010.0 |
| 20260509124414 | 68 | 347 | 5.0 | 11.0 | 0.00 | 0.00 | 0.00 | 83 | 1010.0 |
| 20260509123905 | 68 | 322 | 4.0 | 11.0 | 0.00 | 0.00 | 0.00 | 83 | 1010.0 |
| 20260509123354 | 68 | 322 | 4.0 | 9.0 | 0.00 | 0.00 | 0.00 | 83 | 1009.9 |
| 20260509122842 | 68 | 298 | 4.0 | 8.0 | 0.00 | 0.00 | 0.00 | 83 | 1009.9 |
| 20260509122332 | 68 | 262 | 4.0 | 8.0 | 0.00 | 0.00 | 0.00 | 83 | 1009.9 |
| 20260509122325 | 68 | 257 | 4.0 | 8.0 | 0.00 | 0.00 | 0.00 | 83 | 1009.8 |
| 20260509121815 | 68 | 332 | 4.0 | 7.0 | 0.00 | 0.00 | 0.00 | 83 | 1009.8 |
| 20260509120805 | 68 | 279 | 3.0 | 5.0 | 0.00 | 0.00 | 0.00 | 83 | 1009.8 |
| 20260509120758 | 68 | 280 | 2.0 | 4.0 | 0.00 | 0.00 | 0.00 | 83 | 1009.7 |
| 20260509120252 | 68 | 253 | 2.0 | 4.0 | 0.00 | 0.00 | 0.00 | 82 | 1009.7 |
| 20260509115249 | 69 | 248 | 1.0 | 3.0 | 0.00 | 0.00 | 0.00 | 82 | 1009.7 |
| 20260509114750 | 69 | 249 | 1.0 | 3.0 | 0.00 | 0.00 | 0.00 | 82 | 1009.6 |
| 20260509114250 | 69 | 249 | 1.0 | 3.0 | 0.00 | 0.00 | 0.00 | 82 | 1009.6 |
| 20260509113751 | 69 | 243 | 2.0 | 4.0 | 0.00 | 0.00 | 0.00 | 82 | 1009.5 |
| 20260509113729 | 69 | 253 | 1.0 | 4.0 | 0.00 | 0.00 | 0.00 | 82 | 1009.4 |
| 20260509113334 | 69 | 246 | 2.0 | 5.0 | 0.00 | 0.00 | 0.00 | 82 | 1009.4 |
| 20260509112717 | 69 | 217 | 1.0 | 4.0 | 0.00 | 0.00 | 0.00 | 82 | 1009.3 |
| 20260509111706 | 69 | 229 | 1.0 | 4.0 | 0.00 | 0.00 | 0.00 | 82 | 1009.2 |
| 20260509111146 | 69 | 214 | 1.0 | 5.0 | 0.00 | 0.00 | 0.00 | 83 | 1009.1 |
| 20260509110636 | 69 | 208 | 2.0 | 6.0 | 0.00 | 0.00 | 0.00 | 83 | 1009.1 |
| 20260509110127 | 69 | 225 | 2.0 | 6.0 | 0.00 | 0.00 | 0.00 | 83 | 1009.0 |
| 20260509105608 | 69 | 186 | 1.0 | 4.0 | 0.00 | 0.00 | 0.00 | 83 | 1009.0 |
| 20260509105058 | 69 | 247 | 2.0 | 5.0 | 0.00 | 0.00 | 0.00 | 83 | 1008.9 |
| 20260509105042 | 69 | 262 | 2.0 | 5.0 | 0.00 | 0.00 | 0.00 | 83 | 1008.9 |
| 20260509104030 | 69 | 252 | 2.0 | 5.0 | 0.00 | 0.00 | 0.00 | 84 | 1008.9 |
| 20260509104021 | 69 | 278 | 2.0 | 5.0 | 0.00 | 0.00 | 0.00 | 84 | 1009.0 |
| 20260509103511 | 69 | 253 | 2.0 | 4.0 | 0.00 | 0.00 | 0.00 | 84 | 1009.0 |
| 20260509102502 | 69 | 245 | 2.0 | 4.0 | 0.00 | 0.00 | 0.00 | 84 | 1008.9 |
| 20260509101944 | 70 | 313 | 1.0 | 4.0 | 0.00 | 0.00 | 0.00 | 85 | 1008.9 |
| 20260509101434 | 69 | 313 | 3.0 | 9.0 | 0.00 | 0.00 | 0.00 | 85 | 1008.9 |
| 20260509100924 | 69 | 311 | 4.0 | 9.0 | 0.00 | 0.00 | 0.00 | 85 | 1009.0 |
| 20260509100916 | 69 | 351 | 5.0 | 9.0 | 0.00 | 0.00 | 0.00 | 85 | 1009.0 |
| 20260509095905 | 69 | 13 | 4.0 | 11.0 | 0.00 | 0.00 | 0.00 | 85 | 1009.0 |
| 20260509095356 | 69 | 348 | 5.0 | 10.0 | 0.00 | 0.00 | 0.00 | 85 | 1008.4 |
| 20260509095347 | 69 | 20 | 5.0 | 13.0 | 0.00 | 0.00 | 0.00 | 85 | 1008.0 |
| 20260509094836 | 69 | 357 | 4.0 | 13.0 | 0.00 | 0.00 | 0.00 | 85 | 1007.8 |
| 20260509093826 | 69 | 186 | 6.0 | 16.0 | 0.00 | 0.00 | 0.00 | 85 | 1006.9 |
| 20260509093316 | 69 | 178 | 7.0 | 16.0 | 0.00 | 0.00 | 0.00 | 85 | 1006.8 |
| 20260509092804 | 69 | 172 | 7.0 | 15.0 | 0.00 | 0.00 | 0.00 | 85 | 1006.5 |
| 20260509092256 | 69 | 218 | 7.0 | 17.0 | 0.00 | 0.00 | 0.00 | 85 | 1006.3 |
| 20260509091752 | 69 | 170 | 8.0 | 17.0 | 0.00 | 0.00 | 0.00 | 85 | 1006.3 |
| 20260509091249 | 69 | 195 | 7.0 | 15.0 | 0.00 | 0.00 | 0.00 | 85 | 1006.5 |
| 20260509090741 | 69 | 181 | 8.0 | 17.0 | 0.00 | 0.00 | 0.00 | 85 | 1006.5 |
| 20260509090236 | 69 | 216 | 8.0 | 17.0 | 0.00 | 0.00 | 0.00 | 85 | 1006.7 |
| 20260509085731 | 69 | 182 | 7.0 | 18.0 | 0.00 | 0.00 | 0.00 | 85 | 1006.8 |
| 20260509085229 | 69 | 206 | 8.0 | 18.0 | 0.00 | 0.00 | 0.00 | 85 | 1006.9 |
| 20260509084726 | 69 | 202 | 9.0 | 19.0 | 0.00 | 0.00 | 0.00 | 85 | 1006.8 |
| 20260509084220 | 69 | 214 | 9.0 | 20.0 | 0.00 | 0.00 | 0.00 | 85 | 1006.6 |
| 20260509083713 | 69 | 140 | 8.0 | 20.0 | 0.00 | 0.00 | 0.00 | 85 | 1006.4 |
| 20260509083205 | 69 | 161 | 8.0 | 19.0 | 0.00 | 0.00 | 0.00 | 85 | 1006.7 |
| 20260509082702 | 69 | 218 | 8.0 | 19.0 | 0.00 | 0.00 | 0.00 | 85 | 1007.1 |
| 20260509082157 | 69 | 126 | 8.0 | 19.0 | 0.00 | 0.00 | 0.00 | 85 | 1007.4 |
| 20260509081653 | 69 | 211 | 7.0 | 19.0 | 0.00 | 0.00 | 0.00 | 84 | 1007.6 |
| 20260509081150 | 69 | 141 | 5.0 | 12.0 | 0.00 | 0.00 | 0.00 | 84 | 1007.9 |
| 20260509080647 | 69 | 132 | 4.0 | 11.0 | 0.00 | 0.00 | 0.00 | 84 | 1008.4 |
| 20260509080142 | 69 | 207 | 4.0 | 11.0 | 0.00 | 0.00 | 0.00 | 84 | 1008.7 |
| 20260509075638 | 69 | 193 | 4.0 | 11.0 | 0.00 | 0.00 | 0.00 | 84 | 1008.9 |
| 20260509075131 | 69 | 177 | 3.0 | 9.0 | 0.00 | 0.00 | 0.00 | 84 | 1009.3 |
| 20260509074626 | 69 | 225 | 3.0 | 8.0 | 0.00 | 0.00 | 0.00 | 84 | 1009.5 |
| 20260509074620 | 69 | 262 | 3.0 | 7.0 | 0.00 | 0.00 | 0.00 | 84 | 1009.7 |
| 20260509074112 | 69 | 208 | 3.0 | 9.0 | 0.00 | 0.00 | 0.00 | 84 | 1009.7 |
| 20260509073107 | 69 | 292 | 3.0 | 10.0 | 0.00 | 0.00 | 0.00 | 84 | 1010.1 |
| 20260509072600 | 69 | 192 | 3.0 | 10.0 | 0.00 | 0.00 | 0.00 | 84 | 1010.3 |
| 20260509072054 | 69 | 235 | 3.0 | 11.0 | 0.00 | 0.00 | 0.00 | 84 | 1010.3 |
| 20260509071548 | 69 | 283 | 4.0 | 11.0 | 0.00 | 0.00 | 0.00 | 84 | 1010.5 |
| 20260509071041 | 69 | 293 | 4.0 | 9.0 | 0.00 | 0.00 | 0.00 | 84 | 1010.8 |
| 20260509070532 | 69 | 286 | 4.0 | 9.0 | 0.00 | 0.00 | 0.00 | 84 | 1011.1 |
| 20260509070025 | 69 | 254 | 4.0 | 9.0 | 0.00 | 0.00 | 0.00 | 84 | 1011.2 |
| 20260509065520 | 69 | 307 | 4.0 | 10.0 | 0.00 | 0.00 | 0.00 | 84 | 1011.0 |
| 20260509065003 | 69 | 284 | 3.0 | 7.0 | 0.00 | 0.00 | 0.00 | 83 | 1011.0 |
| 20260509064455 | 69 | 262 | 2.0 | 5.0 | 0.00 | 0.00 | 0.00 | 83 | 1010.7 |
| 20260509063947 | 69 | 284 | 1.0 | 5.0 | 0.00 | 0.00 | 0.00 | 83 | 1010.7 |
| 20260509063439 | 69 | 1 | 0.0 | 3.0 | 0.00 | 0.00 | 0.00 | 83 | 1010.6 |
| 20260509062931 | 69 | 3 | 0.0 | 1.0 | 0.00 | 0.00 | 0.00 | 83 | 1010.6 |
| 20260509062423 | 69 | 3 | 0.0 | 1.0 | 0.00 | 0.00 | 0.00 | 83 | 1010.6 |
| 20260509061914 | 69 | 3 | 0.0 | 1.0 | 0.00 | 0.00 | 0.00 | 83 | 1010.7 |
| 20260509061904 | 69 | 3 | 0.0 | 1.0 | 0.00 | 0.00 | 0.00 | 83 | 1010.8 |
| 20260509061353 | 69 | 3 | 1.0 | 2.0 | 0.00 | 0.00 | 0.00 | 83 | 1011.0 |
| 20260509060343 | 70 | 3 | 0.0 | 4.0 | 0.00 | 0.00 | 0.00 | 83 | 1011.1 |
| 20260509055832 | 70 | 3 | 1.0 | 4.0 | 0.00 | 0.00 | 0.00 | 83 | 1010.6 |
| 20260509055323 | 70 | 3 | 2.0 | 7.0 | 0.00 | 0.00 | 0.00 | 83 | 1010.8 |
| 20260509054814 | 70 | 24 | 2.0 | 7.0 | 0.00 | 0.00 | 0.00 | 83 | 1011.0 |
| 20260509054304 | 70 | 11 | 3.0 | 7.0 | 0.00 | 0.00 | 0.00 | 82 | 1011.1 |
| 20260509053754 | 70 | 357 | 3.0 | 7.0 | 0.00 | 0.00 | 0.00 | 82 | 1011.0 |
| 20260509053243 | 70 | 28 | 3.0 | 8.0 | 0.00 | 0.00 | 0.00 | 81 | 1010.7 |
| 20260509052734 | 70 | 26 | 2.0 | 6.0 | 0.00 | 0.00 | 0.00 | 81 | 1010.7 |
| 20260509052223 | 70 | 82 | 0.0 | 0.0 | 0.00 | 0.00 | 0.00 | 81 | 1010.2 |
| 20260509051713 | 70 | 161 | 0.0 | 0.0 | 0.00 | 0.00 | 0.00 | 81 | 1009.9 |
| 20260509051204 | 70 | 164 | 0.0 | 0.0 | 0.00 | 0.00 | 0.00 | 80 | 1009.9 |
| 20260509050653 | 70 | 162 | 0.0 | 0.0 | 0.00 | 0.00 | 0.00 | 80 | 1010.0 |
| 20260509050143 | 70 | 160 | 0.0 | 2.0 | 0.00 | 0.00 | 0.00 | 80 | 1009.9 |
| 20260509045628 | 71 | 161 | 1.0 | 3.0 | 0.00 | 0.00 | 0.00 | 80 | 1009.8 |
| 20260509045118 | 71 | 161 | 1.0 | 3.0 | 0.00 | 0.00 | 0.00 | 80 | 1009.8 |
| 20260509044608 | 71 | 173 | 1.0 | 4.0 | 0.00 | 0.00 | 0.00 | 80 | 1009.7 |
| 20260509044059 | 71 | 178 | 1.0 | 4.0 | 0.00 | 0.00 | 0.00 | 80 | 1009.8 |
| 20260509043548 | 71 | 164 | 2.0 | 3.0 | 0.00 | 0.00 | 0.00 | 80 | 1009.8 |
| 20260509043038 | 71 | 162 | 2.0 | 7.0 | 0.00 | 0.00 | 0.00 | 80 | 1009.9 |
| 20260509042528 | 71 | 163 | 3.0 | 7.0 | 0.00 | 0.00 | 0.00 | 80 | 1010.0 |
| 20260509042017 | 71 | 158 | 1.0 | 5.0 | 0.00 | 0.00 | 0.00 | 79 | 1010.0 |
| 20260509041508 | 71 | 105 | 0.0 | 3.0 | 0.00 | 0.00 | 0.00 | 79 | 1010.2 |
| 20260509041459 | 71 | 120 | 0.0 | 0.0 | 0.00 | 0.00 | 0.00 | 79 | 1010.5 |
| 20260509040448 | 71 | 119 | 0.0 | 0.0 | 0.00 | 0.00 | 0.00 | 79 | 1010.4 |
| 20260509040439 | 72 | 118 | 0.0 | 4.0 | 0.00 | 0.00 | 0.00 | 78 | 1010.2 |
| 20260509035929 | 72 | 118 | 0.0 | 4.0 | 0.00 | 0.00 | 0.00 | 78 | 1010.2 |
| 20260509034918 | 72 | 118 | 1.0 | 6.0 | 0.00 | 0.00 | 0.00 | 78 | 1010.0 |
| 20260509034408 | 72 | 137 | 2.0 | 8.0 | 0.00 | 0.00 | 0.00 | 78 | 1009.9 |
| 20260509034400 | 72 | 130 | 3.0 | 8.0 | 0.00 | 0.00 | 0.00 | 78 | 1009.6 |
| 20260509033348 | 72 | 141 | 1.0 | 8.0 | 0.00 | 0.00 | 0.00 | 78 | 1009.5 |
| 20260509033339 | 72 | 122 | 2.0 | 7.0 | 0.00 | 0.00 | 0.00 | 78 | 1009.4 |
| 20260509032328 | 72 | 109 | 3.0 | 10.0 | 0.00 | 0.00 | 0.00 | 77 | 1009.3 |
| 20260509032319 | 72 | 143 | 3.0 | 10.0 | 0.00 | 0.00 | 0.00 | 77 | 1009.2 |
| 20260509031808 | 72 | 160 | 4.0 | 9.0 | 0.00 | 0.00 | 0.00 | 77 | 1009.0 |
| 20260509030758 | 72 | 136 | 3.0 | 9.0 | 0.00 | 0.00 | 0.00 | 77 | 1009.0 |
| 20260509030248 | 72 | 152 | 4.0 | 8.0 | 0.00 | 0.00 | 0.00 | 77 | 1009.1 |
| 20260509030240 | 72 | 155 | 4.0 | 10.0 | 0.00 | 0.00 | 0.00 | 77 | 1009.0 |